• en France
  • Liste des pays
  • À 7 jours
  • Température de l'eau
  • Carte satellitaire
  • Carte météo
  • Widgets météo
  • user-avatar
    Se connecter

    Météo par heure à Annaba

    Ce jour, 16 Janvier, Mardi

    Heure Température Précipitation Vent Pression Humidité
    00:00 +10°C° 0 mm 2 m/s 767 mmHg 81%
    01:00 +10°C° 0 mm 3 m/s 768 mmHg 84%
    02:00 +10°C° 0 mm 3 m/s 768 mmHg 85%
    03:00 +10°C° 0 mm 3 m/s 768 mmHg 85%
    04:00 +10°C° 0 mm 3 m/s 768 mmHg 86%
    05:00 +8°C° 0 mm 4 m/s 768 mmHg 86%
    06:00 +8°C° 0 mm 4 m/s 768 mmHg 86%
    07:00 +8°C° 0 mm 4 m/s 767 mmHg 84%
    08:00 +11°C° 0 mm 4 m/s 768 mmHg 79%
    09:00 +12°C° 0 mm 4 m/s 768 mmHg 73%
    10:00 +14°C° 0 mm 4 m/s 768 mmHg 68%
    11:00 +15°C° 0 mm 4 m/s 768 mmHg 64%
    12:00 +17°C° 0 mm 4 m/s 767 mmHg 59%
    13:00 +18°C° 0 mm 4 m/s 767 mmHg 54%
    14:00 +18°C° 0 mm 4 m/s 767 mmHg 55%
    15:00 +18°C° 0 mm 4 m/s 767 mmHg 56%
    16:00 +18°C° 0 mm 4 m/s 766 mmHg 56%
    17:00 +15°C° 0 mm 4 m/s 766 mmHg 64%
    18:00 +13°C° 0 mm 4 m/s 766 mmHg 72%
    19:00 +12°C° 0 mm 3 m/s 766 mmHg 79%
    20:00 +11°C° 0 mm 3 m/s 766 mmHg 79%
    21:00 +11°C° 0 mm 3 m/s 766 mmHg 79%
    22:00 +11°C° 0 mm 3 m/s 766 mmHg 79%
    23:00 +11°C° 0 mm 3 m/s 766 mmHg 77%

    Demain, 17 Janvier, Mercredi

    Heure Température Précipitation Vent Pression Humidité
    00:00 +11°C° 0 mm 3 m/s 766 mmHg 75%
    01:00 +11°C° 0 mm 3 m/s 766 mmHg 74%
    02:00 +11°C° 0 mm 3 m/s 765 mmHg 71%
    03:00 +11°C° 0 mm 3 m/s 765 mmHg 69%
    04:00 +11°C° 0 mm 3 m/s 764 mmHg 67%
    05:00 +11°C° 0 mm 4 m/s 764 mmHg 64%
    06:00 +10°C° 0 mm 4 m/s 764 mmHg 60%
    07:00 +10°C° 0 mm 4 m/s 763 mmHg 57%
    08:00 +12°C° 0 mm 4 m/s 764 mmHg 54%
    09:00 +14°C° 0 mm 4 m/s 764 mmHg 52%
    10:00 +15°C° 0 mm 4 m/s 764 mmHg 49%
    11:00 +16°C° 0 mm 5 m/s 764 mmHg 48%
    12:00 +17°C° 0 mm 7 m/s 764 mmHg 48%
    13:00 +18°C° 0 mm 8 m/s 764 mmHg 47%
    14:00 +17°C° 0 mm 8 m/s 764 mmHg 55%
    15:00 +17°C° 0 mm 8 m/s 764 mmHg 62%
    16:00 +16°C° 0 mm 8 m/s 764 mmHg 70%
    17:00 +15°C° 0,1 mm 7 m/s 765 mmHg 77%
    18:00 +14°C° 0,1 mm 6 m/s 765 mmHg 83%
    19:00 +13°C° 0,1 mm 5 m/s 766 mmHg 90%
    20:00 +13°C° 0,1 mm 4 m/s 766 mmHg 89%
    21:00 +13°C° 0,1 mm 4 m/s 767 mmHg 87%
    22:00 +13°C° 0,1 mm 4 m/s 768 mmHg 86%
    23:00 +12°C° 0 mm 3 m/s 768 mmHg 85%

    Après-demain, 18 Janvier, Jeudi

    Heure Température Précipitation Vent Pression Humidité
    00:00 +12°C° 0 mm 3 m/s 768 mmHg 84%
    01:00 +12°C° 0 mm 3 m/s 768 mmHg 83%
    02:00 +13°C° 0 mm 2 m/s 768 mmHg 83%
    03:00 +12°C° 0 mm 2 m/s 768 mmHg 84%
    04:00 +12°C° 0 mm 1 m/s 768 mmHg 84%
    05:00 +11°C° 0 mm 1 m/s 768 mmHg 84%
    06:00 +11°C° 0 mm 1 m/s 768 mmHg 85%
    07:00 +11°C° 0 mm 1 m/s 768 mmHg 85%
    08:00 +12°C° 0 mm 1 m/s 768 mmHg 80%
    09:00 +13°C° 0 mm 1 m/s 769 mmHg 75%
    10:00 +14°C° 0 mm 1 m/s 769 mmHg 70%
    11:00 +15°C° 0 mm 1 m/s 768 mmHg 65%
    12:00 +16°C° 0 mm 1 m/s 768 mmHg 60%
    13:00 +19°C° 0 mm 1 m/s 767 mmHg 55%
    14:00 +18°C° 0 mm 2 m/s 766 mmHg 55%
    15:00 +18°C° 0 mm 2 m/s 766 mmHg 55%
    16:00 +18°C° 0 mm 3 m/s 765 mmHg 54%
    17:00 +16°C° 0 mm 3 m/s 765 mmHg 61%
    18:00 +14°C° 0 mm 3 m/s 765 mmHg 69%
    19:00 +12°C° 0 mm 3 m/s 765 mmHg 76%
    20:00 +12°C° 0 mm 3 m/s 765 mmHg 75%
    21:00 +13°C° 0 mm 2 m/s 765 mmHg 74%
    22:00 +13°C° 0 mm 2 m/s 765 mmHg 72%
    23:00 +12°C° 0 mm 2 m/s 764 mmHg 72%

    19 Janvier, Vendredi

    Heure Température Précipitation Vent Pression Humidité
    00:00 +12°C° 0 mm 2 m/s 764 mmHg 71%
    01:00 +12°C° 0 mm 2 m/s 763 mmHg 70%
    02:00 +12°C° 0 mm 2 m/s 763 mmHg 70%
    03:00 +12°C° 0 mm 2 m/s 762 mmHg 70%
    04:00 +10°C° 0 mm 2 m/s 762 mmHg 70%
    05:00 +10°C° 0 mm 2 m/s 762 mmHg 70%
    06:00 +10°C° 0 mm 2 m/s 761 mmHg 71%
    07:00 +10°C° 0 mm 2 m/s 761 mmHg 71%
    08:00 +12°C° 0 mm 2 m/s 761 mmHg 66%
    09:00 +14°C° 0 mm 1 m/s 761 mmHg 61%
    10:00 +16°C° 0 mm 1 m/s 761 mmHg 57%
    11:00 +18°C° 0 mm 1 m/s 760 mmHg 52%
    12:00 +20°C° 0 mm 1 m/s 759 mmHg 48%
    13:00 +21°C° 0 mm 1 m/s 759 mmHg 44%
    14:00 +20°C° 0 mm 1 m/s 758 mmHg 47%
    15:00 +19°C° 0 mm 2 m/s 758 mmHg 51%
    16:00 +19°C° 0 mm 2 m/s 757 mmHg 54%
    17:00 +16°C° 0 mm 2 m/s 758 mmHg 64%
    18:00 +14°C° 0 mm 1 m/s 758 mmHg 73%
    19:00 +11°C° 0 mm 0 m/s 758 mmHg 82%
    20:00 +12°C° 0 mm 1 m/s 758 mmHg 83%
    21:00 +12°C° 0 mm 1 m/s 758 mmHg 83%
    22:00 +12°C° 0 mm 2 m/s 759 mmHg 83%
    23:00 +12°C° 0 mm 2 m/s 759 mmHg 84%

    20 Janvier, Samedi

    Heure Température Précipitation Vent Pression Humidité
    00:00 +11°C° 0 mm 3 m/s 759 mmHg 84%
    01:00 +11°C° 0 mm 3 m/s 759 mmHg 85%
    02:00 +11°C° 0,1 mm 3 m/s 759 mmHg 85%
    03:00 +11°C° 0,1 mm 3 m/s 759 mmHg 85%
    04:00 +12°C° 0,1 mm 4 m/s 758 mmHg 85%
    05:00 +11°C° 0,2 mm 4 m/s 759 mmHg 87%
    06:00 +11°C° 0,2 mm 3 m/s 759 mmHg 90%
    07:00 +11°C° 0,2 mm 3 m/s 759 mmHg 92%
    08:00 +11°C° 0,3 mm 4 m/s 759 mmHg 90%
    09:00 +11°C° 0,3 mm 4 m/s 759 mmHg 88%
    10:00 +12°C° 0,3 mm 4 m/s 759 mmHg 85%
    11:00 +11°C° 0,5 mm 6 m/s 759 mmHg 81%
    12:00 +11°C° 0,5 mm 7 m/s 759 mmHg 77%
    13:00 +12°C° 0,5 mm 9 m/s 758 mmHg 73%
    14:00 +11°C° 0,4 mm 10 m/s 758 mmHg 72%
    15:00 +10°C° 0,4 mm 12 m/s 758 mmHg 71%
    16:00 +10°C° 0,4 mm 14 m/s 758 mmHg 70%
    17:00 +9°C° 0,7 mm 13 m/s 758 mmHg 72%
    18:00 +9°C° 0,7 mm 12 m/s 759 mmHg 74%
    19:00 +8°C° 0,7 mm 11 m/s 759 mmHg 76%
    20:00 +8°C° 0,4 mm 12 m/s 760 mmHg 76%
    21:00 +7°C° 0,4 mm 12 m/s 760 mmHg 77%
    22:00 +7°C° 0,4 mm 12 m/s 761 mmHg 77%
    23:00 +7°C° 0,5 mm 11 m/s 760 mmHg 80%

    21 Janvier, Dimanche

    Heure Température Précipitation Vent Pression Humidité
    00:00 +7°C° 0,5 mm 11 m/s 760 mmHg 83%
    01:00 +7°C° 0,5 mm 11 m/s 760 mmHg 87%
    02:00 +7°C° 0,5 mm 10 m/s 760 mmHg 87%
    03:00 +7°C° 0,5 mm 10 m/s 760 mmHg 88%
    04:00 +8°C° 0,5 mm 9 m/s 759 mmHg 88%
    05:00 +8°C° 0,4 mm 9 m/s 759 mmHg 89%
    06:00 +9°C° 0,4 mm 8 m/s 759 mmHg 90%
    07:00 +9°C° 0,4 mm 8 m/s 759 mmHg 91%
    08:00 +10°C° 0,6 mm 8 m/s 759 mmHg 91%
    09:00 +10°C° 0,6 mm 7 m/s 760 mmHg 91%
    10:00 +10°C° 0,6 mm 7 m/s 760 mmHg 91%
    11:00 +11°C° 0,4 mm 7 m/s 760 mmHg 91%
    12:00 +11°C° 0,4 mm 7 m/s 760 mmHg 91%
    13:00 +11°C° 0,4 mm 7 m/s 760 mmHg 91%
    14:00 +11°C° 0,2 mm 7 m/s 760 mmHg 90%
    15:00 +11°C° 0,2 mm 6 m/s 760 mmHg 90%
    16:00 +11°C° 0,2 mm 6 m/s 760 mmHg 90%
    17:00 +10°C° 0,1 mm 6 m/s 761 mmHg 90%
    18:00 +10°C° 0,1 mm 6 m/s 761 mmHg 90%
    19:00 +10°C° 0,1 mm 6 m/s 762 mmHg 90%
    20:00 +10°C° 0,1 mm 7 m/s 762 mmHg 89%
    21:00 +10°C° 0,1 mm 7 m/s 763 mmHg 89%
    22:00 +10°C° 0,1 mm 7 m/s 763 mmHg 89%
    23:00 +10°C° 0 mm 7 m/s 763 mmHg 88%
    Voir plus